Powrót do katalogu

STARLINK-34221

AktywnyŁącznośćVLEO
NORAD 64453·PAYLOAD·🇺🇸 United States

Wystrzelony Jun 18, 2025 z Cape Canaveral Space Force Station

Loading…

Następne Przeloty (najbliższe 24 godziny)

TLE

ŚwieżeSource: CelesTrak SupGP

Epoka: Sep 14, 2026, 23:04 UTC

1 64453C 25130R   26257.96159722  .00046732  00000+0  13809-2 0  2577
2 64453  53.1578 285.2980 0001051  85.3613 112.8867 15.34363703    19

Śledź STARLINK-34221 w czasie rzeczywistym z AllMySat

Download on the App Store